Новочугуевка

Россия / Приморский край     44°12′55″N   133°50′13″E
темп.,
°C
ветер,
м/с
пор.,
м/с
влажн.,
%
обл.,
%
осадки,
мм/ч
давл.,
гПа
погр.,
м
11 мая, вт
вт1101:00+6з1399100 1.3 1013259
04:00+5з1399100 3.6 1014229
07:00+5сз1399100 1.1 1015285
10:00+6зсз1495100 1.4 1017508
13:00+7сз1290100 0.4 1018494
16:00+8ю008573 0.6 1018428
19:00+9ююв127711 0.0 1018488
22:00+4вюв11940 0.0 102010
12 мая, ср
ср1201:00+3юв22954 0.0 102021
04:00+2ююв23973 0.0 102060
07:00+3юв269398 0.0 1020163
10:00+11ююв3661100 0.0 1017709
13:00+15ююз4845100 0.0 10151699
16:00+13ююз4752100 0.0 10141414
19:00+10юз4968100 0.1 1015997
22:00+8ю41077100 0.5 10161062
13 мая, чт
чт1301:00+7ю27822 0.0 1015321
04:00+4ююв24971 0.0 101581
07:00+5ююв23870 0.0 101696
10:00+14юз365613 0.0 1014797
13:00+19зюз4640100 0.0 10121574
16:00+19зюз4641100 0.0 10121428
19:00+16зюз375795 0.0 1012297
22:00+10юв2277100 0.0 101315
14 мая, пт
пт1401:00+8ююв2287100 0.0 101416
04:00+8ююв228457 0.0 101318
07:00+9ююв12736 0.0 101357
10:00+17ююз23385 0.0 1011572
13:00+22юз25274 0.0 10092005
16:00+21юз4545100 0.0 10081294
19:00+17ю1269100 0.0 100834
22:00+14ю2380100 0.0 100953
15 мая, сб
сб1501:00+12ююв2491100 0.3 1008132
04:00+12ююв2498100 3.4 1007153
07:00+12ю2497100 0.4 1006134
10:00+12сз2699100 1.8 1007446
13:00+10с1396100 1.2 1009273
16:00+10ю1193100 1.3 1008200
19:00+11юз1195100 0.0 1007116
22:00+9юз1195100 0.0 100818